EN

Hourly Weather Rozwadow

Today, 28 October, Wednesday

Time Temperature Precipitation Wind Pressure Humidity
00:00 +12°C° 0 mm 3 mps 748 mmHg 88%
01:00 +11°C° 0 mm 3 mps 748 mmHg 89%
02:00 +11°C° 0 mm 3 mps 748 mmHg 90%
03:00 +10°C° 0 mm 2 mps 748 mmHg 91%
04:00 +10°C° 0 mm 2 mps 748 mmHg 92%
05:00 +11°C° 0 mm 1 mps 748 mmHg 94%
06:00 +11°C° 0 mm 1 mps 749 mmHg 94%
07:00 +11°C° 0 mm 1 mps 749 mmHg 94%
08:00 +10°C° 0 mm 2 mps 749 mmHg 95%
09:00 +12°C° 0 mm 2 mps 749 mmHg 89%
10:00 +13°C° 0 mm 2 mps 749 mmHg 83%
11:00 +14°C° 0 mm 3 mps 750 mmHg 78%
12:00 +14°C° 0 mm 3 mps 749 mmHg 74%
13:00 +16°C° 0 mm 3 mps 749 mmHg 71%
14:00 +17°C° 0 mm 3 mps 749 mmHg 68%
15:00 +16°C° 0 mm 3 mps 749 mmHg 72%
16:00 +15°C° 0 mm 2 mps 749 mmHg 75%
17:00 +14°C° 0 mm 2 mps 749 mmHg 79%
18:00 +14°C° 0 mm 2 mps 749 mmHg 82%
19:00 +13°C° 0 mm 2 mps 749 mmHg 84%
20:00 +13°C° 0 mm 2 mps 749 mmHg 87%
21:00 +12°C° 0 mm 2 mps 749 mmHg 89%
22:00 +12°C° 0 mm 2 mps 749 mmHg 91%
23:00 +12°C° 0 mm 2 mps 749 mmHg 93%

Tomorrow, 29 October, Thursday

Time Temperature Precipitation Wind Pressure Humidity
00:00 +10°C° 0 mm 2 mps 749 mmHg 93%
01:00 +10°C° 0 mm 2 mps 749 mmHg 93%
02:00 +10°C° 0 mm 2 mps 749 mmHg 93%
03:00 +10°C° 0 mm 2 mps 749 mmHg 91%
04:00 +9°C° 0 mm 2 mps 749 mmHg 90%
05:00 +9°C° 0 mm 2 mps 748 mmHg 88%
06:00 +9°C° 0 mm 2 mps 749 mmHg 88%
07:00 +9°C° 0 mm 2 mps 749 mmHg 88%
08:00 +8°C° 0 mm 3 mps 749 mmHg 87%
09:00 +9°C° 0 mm 3 mps 749 mmHg 82%
10:00 +10°C° 0 mm 3 mps 749 mmHg 77%
11:00 +11°C° 0 mm 3 mps 749 mmHg 72%
12:00 +12°C° 0 mm 3 mps 748 mmHg 69%
13:00 +13°C° 0 mm 3 mps 748 mmHg 65%
14:00 +13°C° 0 mm 4 mps 748 mmHg 62%
15:00 +12°C° 0 mm 3 mps 748 mmHg 65%
16:00 +12°C° 0 mm 3 mps 748 mmHg 68%
17:00 +12°C° 0 mm 2 mps 748 mmHg 71%
18:00 +12°C° 0.1 mm 2 mps 748 mmHg 73%
19:00 +12°C° 0.1 mm 2 mps 748 mmHg 75%
20:00 +11°C° 0.1 mm 3 mps 748 mmHg 77%
21:00 +10°C° 0.5 mm 3 mps 748 mmHg 81%
22:00 +10°C° 0.5 mm 3 mps 748 mmHg 86%
23:00 +10°C° 0.5 mm 3 mps 748 mmHg 90%

Day after tomorrow, 30 October, Friday

Time Temperature Precipitation Wind Pressure Humidity
00:00 +8°C° 0.4 mm 4 mps 748 mmHg 89%
01:00 +8°C° 0.4 mm 5 mps 748 mmHg 88%
02:00 +8°C° 0.4 mm 6 mps 748 mmHg 87%
03:00 +8°C° 0.1 mm 6 mps 749 mmHg 86%
04:00 +7°C° 0.1 mm 6 mps 749 mmHg 85%
05:00 +7°C° 0.1 mm 6 mps 749 mmHg 84%
06:00 +7°C° 0 mm 6 mps 750 mmHg 85%
07:00 +6°C° 0 mm 5 mps 750 mmHg 87%
08:00 +6°C° 0 mm 5 mps 750 mmHg 88%
09:00 +6°C° 0 mm 5 mps 750 mmHg 87%
10:00 +6°C° 0 mm 5 mps 751 mmHg 86%
11:00 +7°C° 0 mm 4 mps 751 mmHg 84%
12:00 +7°C° 0 mm 4 mps 751 mmHg 82%
13:00 +7°C° 0 mm 4 mps 751 mmHg 80%
14:00 +8°C° 0 mm 4 mps 751 mmHg 78%
15:00 +9°C° 0 mm 3 mps 751 mmHg 79%
16:00 +8°C° 0 mm 2 mps 751 mmHg 81%
17:00 +8°C° 0 mm 2 mps 751 mmHg 82%
18:00 +9°C° 0 mm 1 mps 751 mmHg 83%
19:00 +9°C° 0 mm 1 mps 751 mmHg 83%
20:00 +9°C° 0 mm 1 mps 751 mmHg 84%
21:00 +8°C° 0 mm 1 mps 751 mmHg 85%
22:00 +8°C° 0 mm 1 mps 751 mmHg 85%
23:00 +8°C° 0 mm 1 mps 751 mmHg 85%

31 October, Saturday

Time Temperature Precipitation Wind Pressure Humidity
00:00 +8°C° 0 mm 1 mps 751 mmHg 88%
01:00 +7°C° 0 mm 1 mps 752 mmHg 90%
02:00 +5°C° 0 mm 2 mps 752 mmHg 93%
03:00 +5°C° 0 mm 2 mps 752 mmHg 93%
04:00 +5°C° 0 mm 2 mps 753 mmHg 93%
05:00 +5°C° 0 mm 2 mps 754 mmHg 93%
06:00 +5°C° 0 mm 2 mps 754 mmHg 93%
07:00 +5°C° 0 mm 2 mps 754 mmHg 93%
08:00 +5°C° 0 mm 2 mps 755 mmHg 93%
09:00 +6°C° 0 mm 2 mps 755 mmHg 88%
10:00 +7°C° 0 mm 3 mps 756 mmHg 83%
11:00 +9°C° 0 mm 3 mps 756 mmHg 79%
12:00 +9°C° 0 mm 3 mps 757 mmHg 76%
13:00 +10°C° 0 mm 3 mps 757 mmHg 74%
14:00 +11°C° 0 mm 3 mps 757 mmHg 71%
15:00 +10°C° 0 mm 2 mps 757 mmHg 76%
16:00 +9°C° 0 mm 2 mps 757 mmHg 80%
17:00 +8°C° 0 mm 2 mps 757 mmHg 85%
18:00 +7°C° 0 mm 2 mps 757 mmHg 87%
19:00 +7°C° 0 mm 1 mps 758 mmHg 89%
20:00 +7°C° 0 mm 1 mps 758 mmHg 92%
21:00 +6°C° 0 mm 1 mps 758 mmHg 92%
22:00 +6°C° 0 mm 1 mps 758 mmHg 93%
23:00 +6°C° 0 mm 1 mps 758 mmHg 93%

1 November, Sunday

Time Temperature Precipitation Wind Pressure Humidity
00:00 +5°C° 0 mm 1 mps 758 mmHg 93%
01:00 +5°C° 0 mm 1 mps 758 mmHg 93%
02:00 +5°C° 0 mm 1 mps 758 mmHg 93%
03:00 +5°C° 0 mm 1 mps 758 mmHg 93%
04:00 +5°C° 0 mm 1 mps 758 mmHg 93%
05:00 +5°C° 0 mm 1 mps 758 mmHg 93%
06:00 +4°C° 0 mm 2 mps 758 mmHg 94%
07:00 +3°C° 0 mm 2 mps 758 mmHg 94%
08:00 +3°C° 0 mm 2 mps 758 mmHg 94%
09:00 +5°C° 0 mm 2 mps 758 mmHg 89%
10:00 +5°C° 0 mm 3 mps 758 mmHg 83%
11:00 +8°C° 0 mm 3 mps 758 mmHg 77%
12:00 +9°C° 0 mm 3 mps 758 mmHg 73%
13:00 +9°C° 0 mm 3 mps 757 mmHg 69%
14:00 +10°C° 0 mm 4 mps 757 mmHg 65%
15:00 +9°C° 0 mm 3 mps 757 mmHg 69%
16:00 +8°C° 0 mm 3 mps 757 mmHg 73%
17:00 +7°C° 0 mm 3 mps 756 mmHg 77%
18:00 +7°C° 0 mm 3 mps 756 mmHg 80%
19:00 +5°C° 0 mm 3 mps 756 mmHg 83%
20:00 +5°C° 0 mm 3 mps 756 mmHg 85%
21:00 +5°C° 0 mm 4 mps 756 mmHg 87%
22:00 +5°C° 0 mm 4 mps 756 mmHg 88%
23:00 +5°C° 0 mm 4 mps 756 mmHg 90%

2 November, Monday

Time Temperature Precipitation Wind Pressure Humidity
00:00 +4°C° 0 mm 4 mps 756 mmHg 91%
01:00 +4°C° 0 mm 4 mps 755 mmHg 92%
02:00 +4°C° 0 mm 4 mps 755 mmHg 93%
03:00 +4°C° 0 mm 4 mps 755 mmHg 92%
04:00 +4°C° 0 mm 4 mps 755 mmHg 92%
05:00 +4°C° 0 mm 4 mps 754 mmHg 92%
06:00 +4°C° 0 mm 4 mps 755 mmHg 91%
07:00 +4°C° 0 mm 4 mps 755 mmHg 90%
08:00 +4°C° 0 mm 4 mps 755 mmHg 89%
09:00 +5°C° 0 mm 5 mps 755 mmHg 82%
10:00 +6°C° 0 mm 5 mps 755 mmHg 75%
11:00 +7°C° 0 mm 5 mps 755 mmHg 68%
12:00 +9°C° 0 mm 5 mps 755 mmHg 65%
13:00 +10°C° 0 mm 5 mps 755 mmHg 61%
14:00 +12°C° 0 mm 5 mps 754 mmHg 57%
15:00 +11°C° 0 mm 4 mps 754 mmHg 60%
16:00 +10°C° 0 mm 4 mps 754 mmHg 64%
17:00 +8°C° 0 mm 4 mps 754 mmHg 67%
18:00 +8°C° 0 mm 4 mps 754 mmHg 69%
19:00 +8°C° 0 mm 4 mps 755 mmHg 71%
20:00 +7°C° 0 mm 4 mps 755 mmHg 74%
21:00 +7°C° 0 mm 4 mps 755 mmHg 75%
22:00 +7°C° 0 mm 4 mps 755 mmHg 75%
23:00 +7°C° 0 mm 4 mps 755 mmHg 76%
Show more

We Need Your Consent

Meteoprog and our Service Providers may store and access personal data such as cookies, device identifiers or other similar technologies on your device and process such data to personalise content and ads, as well as provide social media features and to analyse the traffic.

  • Store and/or access information on your device

    Cookies, device identifiers or other information can be stored or accessed on your device for the purposes indicated above.

  • Personalised ads and content, ad and content measurement, audience insights, and products development

    Ads and content can be personalised based on a profile. More data can be added to better personalise ads and content. Ad and content performance can be measured. Insights about the audience who saw the ads and content can be derived. Such data can be used to develop or improve user’s experience, systems and software.

By clicking ‘I Agree’ you will allow the use of indicated cookies, device identifiers, web beacons or other similar technologies. Your settings can be changed in the browser on your device.

For certain purposes, legitimate interests may be relied on, rather than consent. You can read more about this in our Privacy and Cookie Policy.